Year,Month,Day,Hour,Minute,Value (Times are PST for windspeed in km/hr)
2015,10,09,00,00,0.00
2015,10,09,00,01,0.80
2015,10,09,00,02,0.20
2015,10,09,00,03,0.00
2015,10,09,00,04,0.00
2015,10,09,00,05,0.00
2015,10,09,00,06,0.10
2015,10,09,00,07,0.00
2015,10,09,00,08,0.00
2015,10,09,00,09,0.00
2015,10,09,00,10,0.00
2015,10,09,00,11,0.40
2015,10,09,00,12,2.60
2015,10,09,00,13,0.80
2015,10,09,00,14,0.00
2015,10,09,00,15,0.00
2015,10,09,00,16,0.00
2015,10,09,00,17,0.00
2015,10,09,00,18,0.00
2015,10,09,00,19,0.10
2015,10,09,00,20,0.10
2015,10,09,00,21,0.10
2015,10,09,00,22,0.00
2015,10,09,00,23,0.00
2015,10,09,00,24,0.00
2015,10,09,00,25,0.10
2015,10,09,00,26,0.00
2015,10,09,00,27,0.00
2015,10,09,00,28,2.60
2015,10,09,00,29,1.10
2015,10,09,00,30,0.00
2015,10,09,00,31,0.00
2015,10,09,00,32,0.00
2015,10,09,00,33,0.00
2015,10,09,00,34,0.10
2015,10,09,00,35,0.00
2015,10,09,00,36,0.00
2015,10,09,00,37,0.00
2015,10,09,00,38,0.00
2015,10,09,00,39,0.00
2015,10,09,00,40,0.00
2015,10,09,00,41,0.20
2015,10,09,00,42,2.90
2015,10,09,00,43,7.00
2015,10,09,00,44,2.10
2015,10,09,00,45,0.00
2015,10,09,00,46,0.00
2015,10,09,00,47,0.00
2015,10,09,00,48,0.00
2015,10,09,00,49,0.00
2015,10,09,00,50,0.00
2015,10,09,00,51,0.00
2015,10,09,00,52,0.00
2015,10,09,00,53,0.00
2015,10,09,00,54,0.00
2015,10,09,00,55,0.20
2015,10,09,00,56,0.00
2015,10,09,00,57,0.00
2015,10,09,00,58,0.00
2015,10,09,00,59,0.00
2015,10,09,01,00,0.00
2015,10,09,01,01,0.00
2015,10,09,01,02,0.00
2015,10,09,01,03,0.00
2015,10,09,01,04,0.00
2015,10,09,01,05,0.00
2015,10,09,01,06,0.00
2015,10,09,01,07,0.00
2015,10,09,01,08,0.00
2015,10,09,01,09,0.00
2015,10,09,01,10,0.00
2015,10,09,01,11,0.00
2015,10,09,01,12,0.00
2015,10,09,01,13,0.00
2015,10,09,01,14,0.10
2015,10,09,01,15,0.00
2015,10,09,01,16,1.00
2015,10,09,01,17,1.60
2015,10,09,01,18,0.30
2015,10,09,01,19,0.00
2015,10,09,01,20,0.00
2015,10,09,01,21,0.00
2015,10,09,01,22,0.00
2015,10,09,01,23,0.00
2015,10,09,01,24,0.00
2015,10,09,01,25,0.00
2015,10,09,01,26,0.00
2015,10,09,01,27,0.00
2015,10,09,01,28,0.00
2015,10,09,01,29,0.80
2015,10,09,01,30,0.00
2015,10,09,01,31,0.00
2015,10,09,01,32,0.00
2015,10,09,01,33,0.00
2015,10,09,01,34,0.00
2015,10,09,01,35,0.00
2015,10,09,01,36,0.00
2015,10,09,01,37,0.00
2015,10,09,01,38,0.00
2015,10,09,01,39,0.00
2015,10,09,01,40,0.00
2015,10,09,01,41,0.00
2015,10,09,01,42,0.00
2015,10,09,01,43,0.00
2015,10,09,01,44,0.00
2015,10,09,01,45,0.00
2015,10,09,01,46,0.00
2015,10,09,01,47,0.00
2015,10,09,01,48,0.20
2015,10,09,01,49,2.10
2015,10,09,01,50,0.10
2015,10,09,01,51,0.00
2015,10,09,01,52,0.00
2015,10,09,01,53,0.00
2015,10,09,01,54,0.00
2015,10,09,01,55,1.70
2015,10,09,01,56,2.50
2015,10,09,01,57,0.00
2015,10,09,01,58,0.00
2015,10,09,01,59,0.00
2015,10,09,02,00,0.00
2015,10,09,02,01,0.00
2015,10,09,02,02,0.00
2015,10,09,02,03,0.00
2015,10,09,02,04,0.00
2015,10,09,02,05,0.00
2015,10,09,02,06,0.00
2015,10,09,02,07,0.00
2015,10,09,02,08,0.00
2015,10,09,02,09,0.00
2015,10,09,02,10,0.00
2015,10,09,02,11,0.00
2015,10,09,02,12,0.00
2015,10,09,02,13,0.00
2015,10,09,02,14,0.70
2015,10,09,02,15,0.50
2015,10,09,02,16,0.00
2015,10,09,02,17,0.00
2015,10,09,02,18,0.00
2015,10,09,02,19,0.00
2015,10,09,02,20,0.00
2015,10,09,02,21,0.10
2015,10,09,02,22,0.00
2015,10,09,02,23,0.00
2015,10,09,02,24,0.00
2015,10,09,02,25,0.50
2015,10,09,02,26,2.00
2015,10,09,02,27,0.00
2015,10,09,02,28,0.00
2015,10,09,02,29,0.00
2015,10,09,02,30,1.00
2015,10,09,02,31,0.20
2015,10,09,02,32,0.00
2015,10,09,02,33,0.00
2015,10,09,02,34,0.00
2015,10,09,02,35,0.00
2015,10,09,02,36,0.00
2015,10,09,02,37,3.40
2015,10,09,02,38,1.80
2015,10,09,02,39,0.00
2015,10,09,02,40,0.00
2015,10,09,02,41,0.10
2015,10,09,02,42,0.00
2015,10,09,02,43,0.00
2015,10,09,02,44,0.10
2015,10,09,02,45,0.00
2015,10,09,02,46,0.00
2015,10,09,02,47,0.00
2015,10,09,02,48,0.00
2015,10,09,02,49,0.00
2015,10,09,02,50,0.00
2015,10,09,02,51,0.00
2015,10,09,02,52,0.00
2015,10,09,02,53,0.10
2015,10,09,02,54,1.20
2015,10,09,02,55,0.10
2015,10,09,02,56,0.10
2015,10,09,02,57,0.10
2015,10,09,02,58,0.10
2015,10,09,02,59,0.00
2015,10,09,03,00,0.00
2015,10,09,03,01,0.00
2015,10,09,03,02,0.10
2015,10,09,03,03,0.00
2015,10,09,03,04,0.00
2015,10,09,03,05,0.00
2015,10,09,03,06,2.00
2015,10,09,03,07,0.50
2015,10,09,03,08,0.00
2015,10,09,03,09,0.00
2015,10,09,03,10,0.00
2015,10,09,03,11,0.10
2015,10,09,03,12,0.10
2015,10,09,03,13,0.00
2015,10,09,03,14,0.00
2015,10,09,03,15,0.00
2015,10,09,03,16,0.00
2015,10,09,03,17,0.00
2015,10,09,03,18,0.00
2015,10,09,03,19,0.00
2015,10,09,03,20,0.00
2015,10,09,03,21,0.00
2015,10,09,03,22,0.00
2015,10,09,03,23,0.00
2015,10,09,03,24,0.60
2015,10,09,03,25,1.20
2015,10,09,03,26,0.00
2015,10,09,03,27,0.00
2015,10,09,03,28,0.30
2015,10,09,03,29,2.00
2015,10,09,03,30,0.00
2015,10,09,03,31,0.00
2015,10,09,03,32,2.30
2015,10,09,03,33,0.10
2015,10,09,03,34,0.00
2015,10,09,03,35,0.00
2015,10,09,03,36,0.00
2015,10,09,03,37,0.00
2015,10,09,03,38,0.00
2015,10,09,03,39,0.00
2015,10,09,03,40,0.00
2015,10,09,03,41,0.00
2015,10,09,03,42,0.00
2015,10,09,03,43,0.00
2015,10,09,03,44,1.80
2015,10,09,03,45,0.00
2015,10,09,03,46,0.00
2015,10,09,03,47,0.00
2015,10,09,03,48,0.00
2015,10,09,03,49,0.00
2015,10,09,03,50,0.00
2015,10,09,03,51,0.00
2015,10,09,03,52,0.00
2015,10,09,03,53,0.00
2015,10,09,03,54,0.10
2015,10,09,03,55,0.00
2015,10,09,03,56,0.50
2015,10,09,03,57,0.00
2015,10,09,03,58,0.00
2015,10,09,03,59,1.40
2015,10,09,04,00,0.40
2015,10,09,04,01,0.10
2015,10,09,04,02,0.00
2015,10,09,04,03,0.00
2015,10,09,04,04,0.10
2015,10,09,04,05,0.10
2015,10,09,04,06,0.70
2015,10,09,04,07,2.00
2015,10,09,04,08,2.60
2015,10,09,04,09,0.00
2015,10,09,04,10,0.00
2015,10,09,04,11,3.50
2015,10,09,04,12,6.80
2015,10,09,04,13,4.90
2015,10,09,04,14,3.10
2015,10,09,04,15,1.20
2015,10,09,04,16,3.60
2015,10,09,04,17,1.80
2015,10,09,04,18,1.30
2015,10,09,04,19,1.70
2015,10,09,04,20,0.00
2015,10,09,04,21,0.10
2015,10,09,04,22,0.20
2015,10,09,04,23,2.40
2015,10,09,04,24,5.40
2015,10,09,04,25,1.00
2015,10,09,04,26,1.90
2015,10,09,04,27,1.40
2015,10,09,04,28,1.90
2015,10,09,04,29,4.40
2015,10,09,04,30,10.60
2015,10,09,04,31,4.80
2015,10,09,04,32,5.00
2015,10,09,04,33,1.50
2015,10,09,04,34,0.20
2015,10,09,04,35,8.20
2015,10,09,04,36,4.00
2015,10,09,04,37,1.60
2015,10,09,04,38,8.60
2015,10,09,04,39,3.70
2015,10,09,04,40,9.10
2015,10,09,04,41,5.00
2015,10,09,04,42,0.10
2015,10,09,04,43,7.20
2015,10,09,04,44,10.60
2015,10,09,04,45,9.40
2015,10,09,04,46,1.70
2015,10,09,04,47,0.90
2015,10,09,04,48,0.50
2015,10,09,04,49,7.80
2015,10,09,04,50,8.30
2015,10,09,04,51,3.40
2015,10,09,04,52,0.30
2015,10,09,04,53,6.40
2015,10,09,04,54,1.90
2015,10,09,04,55,1.50
2015,10,09,04,56,8.60
2015,10,09,04,57,3.70
2015,10,09,04,58,9.60
2015,10,09,04,59,3.50
2015,10,09,05,00,9.50
2015,10,09,05,01,8.00
2015,10,09,05,02,6.50
2015,10,09,05,03,13.90
2015,10,09,05,04,6.60
2015,10,09,05,05,7.50
2015,10,09,05,06,6.80
2015,10,09,05,07,10.50
2015,10,09,05,08,5.60
2015,10,09,05,09,5.10
2015,10,09,05,10,7.20
2015,10,09,05,11,4.20
2015,10,09,05,12,6.80
2015,10,09,05,13,11.10
2015,10,09,05,14,3.80
2015,10,09,05,15,8.10
2015,10,09,05,16,5.90
2015,10,09,05,17,0.00
2015,10,09,05,18,3.30
2015,10,09,05,19,6.70
2015,10,09,05,20,4.10
2015,10,09,05,21,4.50
2015,10,09,05,22,9.80
2015,10,09,05,23,7.80
2015,10,09,05,24,6.90
2015,10,09,05,25,3.40
2015,10,09,05,26,7.20
2015,10,09,05,27,7.40
2015,10,09,05,28,5.00
2015,10,09,05,29,12.00
2015,10,09,05,30,3.40
2015,10,09,05,31,11.30
2015,10,09,05,32,6.70
2015,10,09,05,33,5.10
2015,10,09,05,34,1.80
2015,10,09,05,35,8.40
2015,10,09,05,36,9.20
2015,10,09,05,37,4.30
2015,10,09,05,38,9.70
2015,10,09,05,39,12.20
2015,10,09,05,40,2.30
2015,10,09,05,41,11.50
2015,10,09,05,42,18.10
2015,10,09,05,43,15.70
2015,10,09,05,44,17.10
2015,10,09,05,45,12.00
2015,10,09,05,46,4.50
2015,10,09,05,47,6.10
2015,10,09,05,48,8.30
2015,10,09,05,49,6.70
2015,10,09,05,50,15.30
2015,10,09,05,51,6.60
2015,10,09,05,52,12.60
2015,10,09,05,53,7.00
2015,10,09,05,54,7.50
2015,10,09,05,55,7.90
2015,10,09,05,56,11.30
2015,10,09,05,57,21.30
2015,10,09,05,58,9.50
2015,10,09,05,59,14.10
2015,10,09,06,00,2.60
2015,10,09,06,01,6.50
2015,10,09,06,02,6.40
2015,10,09,06,03,8.10
2015,10,09,06,04,5.30
2015,10,09,06,05,5.40
2015,10,09,06,06,9.60
2015,10,09,06,07,16.00
2015,10,09,06,08,11.60
2015,10,09,06,09,8.60
2015,10,09,06,10,7.60
2015,10,09,06,11,13.50
2015,10,09,06,12,19.80
2015,10,09,06,13,14.00
2015,10,09,06,14,15.00
2015,10,09,06,15,16.90
2015,10,09,06,16,22.20
2015,10,09,06,17,32.60
2015,10,09,06,18,18.30
2015,10,09,06,19,10.50
2015,10,09,06,20,11.40
2015,10,09,06,21,3.60
2015,10,09,06,22,6.40
2015,10,09,06,23,5.90
2015,10,09,06,24,8.70
2015,10,09,06,25,7.00
2015,10,09,06,26,5.90
2015,10,09,06,27,11.70
2015,10,09,06,28,5.40
2015,10,09,06,29,7.30
2015,10,09,06,30,8.00
2015,10,09,06,31,10.80
2015,10,09,06,32,9.70
2015,10,09,06,33,8.80
2015,10,09,06,34,7.60
2015,10,09,06,35,12.70
2015,10,09,06,36,8.10
2015,10,09,06,37,6.60
2015,10,09,06,38,11.00
2015,10,09,06,39,10.00
2015,10,09,06,40,10.20
2015,10,09,06,41,11.90
2015,10,09,06,42,13.40
2015,10,09,06,43,8.10
2015,10,09,06,44,9.10
2015,10,09,06,45,14.10
2015,10,09,06,46,15.00
2015,10,09,06,47,5.20
2015,10,09,06,48,7.60
2015,10,09,06,49,7.30
2015,10,09,06,50,6.40
2015,10,09,06,51,12.30
2015,10,09,06,52,13.90
2015,10,09,06,53,13.30
2015,10,09,06,54,13.50
2015,10,09,06,55,12.10
2015,10,09,06,56,7.80
2015,10,09,06,57,14.00
2015,10,09,06,58,12.10
2015,10,09,06,59,6.20
2015,10,09,07,00,8.00
2015,10,09,07,01,10.20
2015,10,09,07,02,12.20
2015,10,09,07,03,8.30
2015,10,09,07,04,4.80
2015,10,09,07,05,10.20
2015,10,09,07,06,8.50
2015,10,09,07,07,20.80
2015,10,09,07,08,15.40
2015,10,09,07,09,11.50
2015,10,09,07,10,8.50
2015,10,09,07,11,13.30
2015,10,09,07,12,16.70
2015,10,09,07,13,21.60
2015,10,09,07,14,12.00
2015,10,09,07,15,10.70
2015,10,09,07,16,15.00
2015,10,09,07,17,4.40
2015,10,09,07,18,6.70
2015,10,09,07,19,17.40
2015,10,09,07,20,14.50
2015,10,09,07,21,14.60
2015,10,09,07,22,9.90
2015,10,09,07,23,3.10
2015,10,09,07,24,7.30
2015,10,09,07,25,11.70
2015,10,09,07,26,10.40
2015,10,09,07,27,11.00
2015,10,09,07,28,14.80
2015,10,09,07,29,15.00
2015,10,09,07,30,17.80
2015,10,09,07,31,15.90
2015,10,09,07,32,13.30
2015,10,09,07,33,9.00
2015,10,09,07,34,6.60
2015,10,09,07,35,3.20
2015,10,09,07,36,3.20
2015,10,09,07,37,3.20
2015,10,09,07,38,10.50
2015,10,09,07,39,3.90
2015,10,09,07,40,3.80
2015,10,09,07,41,7.30
2015,10,09,07,42,10.80
2015,10,09,07,43,10.20
2015,10,09,07,44,13.10
2015,10,09,07,45,15.90
2015,10,09,07,46,15.00
2015,10,09,07,47,10.60
2015,10,09,07,48,4.80
2015,10,09,07,49,15.50
2015,10,09,07,50,10.20
2015,10,09,07,51,13.00
2015,10,09,07,52,10.80
2015,10,09,07,53,12.70
2015,10,09,07,54,5.90
2015,10,09,07,55,10.60
2015,10,09,07,56,9.40
2015,10,09,07,57,14.70
2015,10,09,07,58,5.00
2015,10,09,07,59,9.60
2015,10,09,08,00,5.80
2015,10,09,08,01,4.40
2015,10,09,08,02,7.60
2015,10,09,08,03,13.90
2015,10,09,08,04,10.20
2015,10,09,08,05,6.10
2015,10,09,08,06,9.80
2015,10,09,08,07,8.00
2015,10,09,08,08,5.70
2015,10,09,08,09,3.70
2015,10,09,08,10,10.20
2015,10,09,08,11,3.30
2015,10,09,08,12,3.00
2015,10,09,08,13,5.90
2015,10,09,08,14,6.40
2015,10,09,08,15,3.10
2015,10,09,08,16,4.40
2015,10,09,08,17,15.60
2015,10,09,08,18,12.60
2015,10,09,08,19,9.20
2015,10,09,08,20,6.20
2015,10,09,08,21,3.90
2015,10,09,08,22,4.80
2015,10,09,08,23,10.40
2015,10,09,08,24,15.70
2015,10,09,08,25,3.80
2015,10,09,08,26,9.40
2015,10,09,08,27,14.30
2015,10,09,08,28,8.60
2015,10,09,08,29,9.40
2015,10,09,08,30,6.80
2015,10,09,08,31,3.90
2015,10,09,08,32,9.00
2015,10,09,08,33,8.80
2015,10,09,08,34,2.20
2015,10,09,08,35,12.10
2015,10,09,08,36,6.70
2015,10,09,08,37,6.70
2015,10,09,08,38,6.70
2015,10,09,08,39,13.50
2015,10,09,08,40,4.10
2015,10,09,08,41,6.00
2015,10,09,08,42,12.70
2015,10,09,08,43,16.90
2015,10,09,08,44,10.30
2015,10,09,08,45,14.30
2015,10,09,08,46,5.70
2015,10,09,08,47,11.20
2015,10,09,08,48,9.70
2015,10,09,08,49,14.80
2015,10,09,08,50,11.10
2015,10,09,08,51,6.90
2015,10,09,08,52,13.60
2015,10,09,08,53,13.20
2015,10,09,08,54,17.10
2015,10,09,08,55,12.30
2015,10,09,08,56,7.70
2015,10,09,08,57,6.30
2015,10,09,08,58,10.70
2015,10,09,08,59,7.70
2015,10,09,09,00,13.30
2015,10,09,09,01,15.30
2015,10,09,09,02,15.10
2015,10,09,09,03,20.50
2015,10,09,09,04,4.80
2015,10,09,09,05,10.50
2015,10,09,09,06,6.10
2015,10,09,09,07,6.90
2015,10,09,09,08,14.60
2015,10,09,09,09,9.90
2015,10,09,09,10,10.30
2015,10,09,09,11,13.00
2015,10,09,09,12,14.30
2015,10,09,09,13,11.00
2015,10,09,09,14,13.80
2015,10,09,09,15,14.10
2015,10,09,09,16,12.20
2015,10,09,09,17,14.00
2015,10,09,09,18,16.10
2015,10,09,09,19,9.20
2015,10,09,09,20,14.10
2015,10,09,09,21,19.50
2015,10,09,09,22,16.50
2015,10,09,09,23,9.50
2015,10,09,09,24,13.50
2015,10,09,09,25,13.40
2015,10,09,09,26,13.20
2015,10,09,09,27,15.90
2015,10,09,09,28,8.20
2015,10,09,09,29,8.00
2015,10,09,09,30,14.10
2015,10,09,09,31,16.10
2015,10,09,09,32,16.50
2015,10,09,09,33,20.10
2015,10,09,09,34,17.40
2015,10,09,09,35,17.00
2015,10,09,09,36,16.40
2015,10,09,09,37,5.90
2015,10,09,09,38,17.10
2015,10,09,09,39,17.00
2015,10,09,09,40,13.10
2015,10,09,09,41,7.70
2015,10,09,09,42,5.80
2015,10,09,09,43,3.50
2015,10,09,09,44,19.90
2015,10,09,09,45,8.80
2015,10,09,09,46,12.40
2015,10,09,09,47,12.40
2015,10,09,09,48,14.00
2015,10,09,09,49,10.90
2015,10,09,09,50,12.10
2015,10,09,09,51,18.90
2015,10,09,09,52,17.80
2015,10,09,09,53,15.40
2015,10,09,09,54,16.00
2015,10,09,09,55,16.70
2015,10,09,09,56,14.40
2015,10,09,09,57,10.60
2015,10,09,09,58,13.10
2015,10,09,09,59,16.00
2015,10,09,10,00,8.70
2015,10,09,10,01,15.60
2015,10,09,10,02,14.80
2015,10,09,10,03,13.00
2015,10,09,10,04,12.20
2015,10,09,10,05,10.50
2015,10,09,10,06,11.00
2015,10,09,10,07,10.30
2015,10,09,10,08,10.60
2015,10,09,10,09,9.40
2015,10,09,10,10,14.00
2015,10,09,10,11,15.70
2015,10,09,10,12,13.20
2015,10,09,10,13,5.80
2015,10,09,10,14,13.20
2015,10,09,10,15,11.70
2015,10,09,10,16,8.30
2015,10,09,10,17,14.10
2015,10,09,10,18,16.20
2015,10,09,10,19,6.70
2015,10,09,10,20,13.10
2015,10,09,10,21,16.70
2015,10,09,10,22,7.00
2015,10,09,10,23,7.20
2015,10,09,10,24,7.40
2015,10,09,10,25,14.30
2015,10,09,10,26,13.90
2015,10,09,10,27,10.30
2015,10,09,10,28,15.00
2015,10,09,10,29,10.50
2015,10,09,10,30,10.50
2015,10,09,10,31,22.40
2015,10,09,10,32,16.00
2015,10,09,10,33,12.80
2015,10,09,10,34,16.40
2015,10,09,10,35,23.10
2015,10,09,10,36,10.50
2015,10,09,10,37,17.20
2015,10,09,10,38,11.90
2015,10,09,10,39,13.60
2015,10,09,10,40,9.40
2015,10,09,10,41,8.10
2015,10,09,10,42,19.20
2015,10,09,10,43,9.30
2015,10,09,10,44,10.70
2015,10,09,10,45,19.20
2015,10,09,10,46,15.90
2015,10,09,10,47,11.80
2015,10,09,10,48,18.40
2015,10,09,10,49,6.60
2015,10,09,10,50,11.40
2015,10,09,10,51,8.60
2015,10,09,10,52,14.90
2015,10,09,10,53,14.70
2015,10,09,10,54,10.10
2015,10,09,10,55,12.80
2015,10,09,10,56,8.40
2015,10,09,10,57,8.10
2015,10,09,10,58,8.10
2015,10,09,10,59,11.80
2015,10,09,11,00,11.40
2015,10,09,11,01,17.00
2015,10,09,11,02,14.60
2015,10,09,11,03,17.70
2015,10,09,11,04,15.60
2015,10,09,11,05,14.60
2015,10,09,11,06,16.70
2015,10,09,11,07,13.00
2015,10,09,11,08,14.60
2015,10,09,11,09,10.60
2015,10,09,11,10,6.50
2015,10,09,11,11,11.00
2015,10,09,11,12,13.20
2015,10,09,11,13,7.80
2015,10,09,11,14,8.30
2015,10,09,11,15,20.90
2015,10,09,11,16,9.80
2015,10,09,11,17,13.90
2015,10,09,11,18,14.60
2015,10,09,11,19,12.80
2015,10,09,11,20,11.60
2015,10,09,11,21,17.60
2015,10,09,11,22,8.90
2015,10,09,11,23,14.90
2015,10,09,11,24,19.20
2015,10,09,11,25,11.30
2015,10,09,11,26,15.70
2015,10,09,11,27,15.30
2015,10,09,11,28,11.00
2015,10,09,11,29,7.20
2015,10,09,11,30,19.30
2015,10,09,11,31,9.00
2015,10,09,11,32,14.60
2015,10,09,11,33,9.70
2015,10,09,11,34,12.50
2015,10,09,11,35,22.20
2015,10,09,11,36,13.60
2015,10,09,11,37,16.00
2015,10,09,11,38,12.20
2015,10,09,11,39,9.10
2015,10,09,11,40,11.00
2015,10,09,11,41,15.50
2015,10,09,11,42,11.90
2015,10,09,11,43,16.10
2015,10,09,11,44,11.60
2015,10,09,11,45,15.30
2015,10,09,11,46,9.90
2015,10,09,11,47,13.00
2015,10,09,11,48,18.50
2015,10,09,11,49,7.60
2015,10,09,11,50,13.20
2015,10,09,11,51,18.80
2015,10,09,11,52,5.60
2015,10,09,11,53,10.50
2015,10,09,11,54,14.60
2015,10,09,11,55,12.90
2015,10,09,11,56,7.20
2015,10,09,11,57,12.40
2015,10,09,11,58,20.70
2015,10,09,11,59,16.20
2015,10,09,12,00,18.50
2015,10,09,12,01,16.90
2015,10,09,12,02,17.00
2015,10,09,12,03,13.10
2015,10,09,12,04,9.40
2015,10,09,12,05,15.60
2015,10,09,12,06,20.80
2015,10,09,12,07,20.10
2015,10,09,12,08,10.80
2015,10,09,12,09,7.90
2015,10,09,12,10,13.10
2015,10,09,12,11,13.90
2015,10,09,12,12,9.40
2015,10,09,12,13,5.30
2015,10,09,12,14,14.90
2015,10,09,12,15,11.80
2015,10,09,12,16,8.20
2015,10,09,12,17,8.80
2015,10,09,12,18,10.20
2015,10,09,12,19,11.00
2015,10,09,12,20,11.50
2015,10,09,12,21,14.90
2015,10,09,12,22,12.30
2015,10,09,12,23,15.70
2015,10,09,12,24,14.30
2015,10,09,12,25,10.80
2015,10,09,12,26,12.40
2015,10,09,12,27,18.90
2015,10,09,12,28,6.40
2015,10,09,12,29,8.70
2015,10,09,12,30,15.60
2015,10,09,12,31,19.40
2015,10,09,12,32,16.20
2015,10,09,12,33,14.00
2015,10,09,12,34,12.00
2015,10,09,12,35,13.60
2015,10,09,12,36,12.30
2015,10,09,12,37,12.10
2015,10,09,12,38,18.90
2015,10,09,12,39,13.50
2015,10,09,12,40,13.80
2015,10,09,12,41,10.90
2015,10,09,12,42,10.00
2015,10,09,12,43,10.20
2015,10,09,12,44,13.80
2015,10,09,12,45,11.90
2015,10,09,12,46,10.60
2015,10,09,12,47,7.40
2015,10,09,12,48,12.20
2015,10,09,12,49,18.70
2015,10,09,12,50,10.60
2015,10,09,12,51,16.60
2015,10,09,12,52,13.00
2015,10,09,12,53,11.60
2015,10,09,12,54,9.70
2015,10,09,12,55,13.20
2015,10,09,12,56,11.50
2015,10,09,12,57,16.80
2015,10,09,12,58,18.50
2015,10,09,12,59,6.80
2015,10,09,13,00,13.40
2015,10,09,13,01,6.30
2015,10,09,13,02,14.30
2015,10,09,13,03,6.80
2015,10,09,13,04,5.40
2015,10,09,13,05,4.00
2015,10,09,13,06,9.00
2015,10,09,13,07,11.50
2015,10,09,13,08,11.20
2015,10,09,13,09,11.80
2015,10,09,13,10,10.90
2015,10,09,13,11,7.80
2015,10,09,13,12,16.10
2015,10,09,13,13,6.60
2015,10,09,13,14,15.50
2015,10,09,13,15,8.20
2015,10,09,13,16,12.90
2015,10,09,13,17,13.60
2015,10,09,13,18,14.40
2015,10,09,13,19,3.10
2015,10,09,13,20,8.00
2015,10,09,13,21,14.10
2015,10,09,13,22,12.10
2015,10,09,13,23,11.10
2015,10,09,13,24,7.80
2015,10,09,13,25,5.50
2015,10,09,13,26,11.80
2015,10,09,13,27,10.50
2015,10,09,13,28,7.80
2015,10,09,13,29,8.60
2015,10,09,13,30,10.20
2015,10,09,13,31,10.40
2015,10,09,13,32,16.80
2015,10,09,13,33,17.10
2015,10,09,13,34,8.10
2015,10,09,13,35,13.40
2015,10,09,13,36,10.10
2015,10,09,13,37,13.50
2015,10,09,13,38,8.10
2015,10,09,13,39,12.00
2015,10,09,13,40,12.00
2015,10,09,13,41,5.80
2015,10,09,13,42,7.60
2015,10,09,13,43,10.50
2015,10,09,13,44,8.40
2015,10,09,13,45,15.60
2015,10,09,13,46,5.90
2015,10,09,13,47,7.20
2015,10,09,13,48,13.50
2015,10,09,13,49,10.70
2015,10,09,13,50,13.70
2015,10,09,13,51,10.00
2015,10,09,13,52,6.70
2015,10,09,13,53,9.50
2015,10,09,13,54,11.90
2015,10,09,13,55,5.10
2015,10,09,13,56,6.90
2015,10,09,13,57,9.40
2015,10,09,13,58,11.40
2015,10,09,13,59,7.40
2015,10,09,14,00,11.90
2015,10,09,14,01,11.60
2015,10,09,14,02,15.70
2015,10,09,14,03,10.70
2015,10,09,14,04,12.70
2015,10,09,14,05,12.10
2015,10,09,14,06,9.80
2015,10,09,14,07,8.00
2015,10,09,14,08,6.80
2015,10,09,14,09,10.00
2015,10,09,14,10,8.00
2015,10,09,14,11,8.90
2015,10,09,14,12,13.40
2015,10,09,14,13,11.00
2015,10,09,14,14,13.20
2015,10,09,14,15,10.70
2015,10,09,14,16,1.70
2015,10,09,14,17,10.30
2015,10,09,14,18,11.70
2015,10,09,14,19,11.20
2015,10,09,14,20,16.30
2015,10,09,14,21,12.90
2015,10,09,14,22,11.30
2015,10,09,14,23,11.10
2015,10,09,14,24,11.00
2015,10,09,14,25,9.60
2015,10,09,14,26,6.10
2015,10,09,14,27,10.30
2015,10,09,14,28,8.50
2015,10,09,14,29,7.60
2015,10,09,14,30,4.80
2015,10,09,14,31,7.60
2015,10,09,14,32,8.40
2015,10,09,14,33,7.80
2015,10,09,14,34,16.00
2015,10,09,14,35,12.70
2015,10,09,14,36,9.60
2015,10,09,14,37,9.60
2015,10,09,14,38,9.60
2015,10,09,14,39,9.60
2015,10,09,14,40,9.10
2015,10,09,14,41,2.90
2015,10,09,14,42,16.90
2015,10,09,14,43,14.10
2015,10,09,14,44,8.80
2015,10,09,14,45,9.90
2015,10,09,14,46,8.20
2015,10,09,14,47,10.00
2015,10,09,14,48,14.40
2015,10,09,14,49,11.30
2015,10,09,14,50,8.00
2015,10,09,14,51,8.30
2015,10,09,14,52,9.50
2015,10,09,14,53,13.10
2015,10,09,14,54,13.00
2015,10,09,14,55,14.10
2015,10,09,14,56,9.50
2015,10,09,14,57,10.00
2015,10,09,14,58,8.50
2015,10,09,14,59,12.90
2015,10,09,15,00,2.80
2015,10,09,15,01,12.20
2015,10,09,15,02,11.30
2015,10,09,15,03,2.90
2015,10,09,15,04,15.60
2015,10,09,15,05,11.90
2015,10,09,15,06,5.80
2015,10,09,15,07,6.40
2015,10,09,15,08,14.60
2015,10,09,15,09,7.00
2015,10,09,15,10,7.20
2015,10,09,15,11,6.00
2015,10,09,15,12,4.20
2015,10,09,15,13,7.30
2015,10,09,15,14,5.30
2015,10,09,15,15,8.70
2015,10,09,15,16,10.00
2015,10,09,15,17,10.10
2015,10,09,15,18,2.60
2015,10,09,15,19,3.50
2015,10,09,15,20,9.20
2015,10,09,15,21,9.50
2015,10,09,15,22,7.90
2015,10,09,15,23,5.10
2015,10,09,15,24,10.80
2015,10,09,15,25,12.70
2015,10,09,15,26,10.80
2015,10,09,15,27,3.10
2015,10,09,15,28,7.80
2015,10,09,15,29,9.70
2015,10,09,15,30,9.10
2015,10,09,15,31,8.30
2015,10,09,15,32,8.80
2015,10,09,15,33,1.90
2015,10,09,15,34,4.90
2015,10,09,15,35,10.80
2015,10,09,15,36,7.10
2015,10,09,15,37,3.20
2015,10,09,15,38,1.70
2015,10,09,15,39,3.50
2015,10,09,15,40,7.30
2015,10,09,15,41,16.20
2015,10,09,15,42,13.40
2015,10,09,15,43,10.00
2015,10,09,15,44,12.40
2015,10,09,15,45,10.80
2015,10,09,15,46,1.90
2015,10,09,15,47,1.30
2015,10,09,15,48,6.30
2015,10,09,15,49,2.80
2015,10,09,15,50,9.20
2015,10,09,15,51,12.00
2015,10,09,15,52,17.60
2015,10,09,15,53,9.40
2015,10,09,15,54,6.10
2015,10,09,15,55,6.70
2015,10,09,15,56,9.50
2015,10,09,15,57,8.30
2015,10,09,15,58,5.60
2015,10,09,15,59,3.10
2015,10,09,16,00,5.80
2015,10,09,16,01,6.10
2015,10,09,16,02,10.90
2015,10,09,16,03,8.60
2015,10,09,16,04,1.90
2015,10,09,16,05,12.70
2015,10,09,16,06,9.40
2015,10,09,16,07,8.50
2015,10,09,16,08,6.10
2015,10,09,16,09,6.20
2015,10,09,16,10,13.00
2015,10,09,16,11,10.40
2015,10,09,16,12,13.30
2015,10,09,16,13,8.10
2015,10,09,16,14,13.60
2015,10,09,16,15,11.30
2015,10,09,16,16,6.60
2015,10,09,16,17,8.70
2015,10,09,16,18,13.60
2015,10,09,16,19,16.80
2015,10,09,16,20,12.40
2015,10,09,16,21,9.40
2015,10,09,16,22,9.20
2015,10,09,16,23,14.50
2015,10,09,16,24,10.40
2015,10,09,16,25,10.00
2015,10,09,16,26,14.00
2015,10,09,16,27,7.20
2015,10,09,16,28,9.20
2015,10,09,16,29,13.80
2015,10,09,16,30,9.60
2015,10,09,16,31,13.30
2015,10,09,16,32,8.90
2015,10,09,16,33,14.30
2015,10,09,16,34,8.50
2015,10,09,16,35,16.40
2015,10,09,16,36,12.20
2015,10,09,16,37,7.30
2015,10,09,16,38,9.30
2015,10,09,16,39,9.70
2015,10,09,16,40,15.10
2015,10,09,16,41,5.40
2015,10,09,16,42,10.40
2015,10,09,16,43,9.70
2015,10,09,16,44,11.20
2015,10,09,16,45,10.70
2015,10,09,16,46,9.90
2015,10,09,16,47,14.00
2015,10,09,16,48,7.80
2015,10,09,16,49,11.00
2015,10,09,16,50,8.90
2015,10,09,16,51,15.90
2015,10,09,16,52,11.90
2015,10,09,16,53,13.80
2015,10,09,16,54,14.80
2015,10,09,16,55,14.60
2015,10,09,16,56,3.70
2015,10,09,16,57,12.60
2015,10,09,16,58,11.50
2015,10,09,16,59,7.00
2015,10,09,17,00,13.80
2015,10,09,17,01,5.40
2015,10,09,17,02,10.80
2015,10,09,17,03,5.60
2015,10,09,17,04,16.90
2015,10,09,17,05,13.10
2015,10,09,17,06,8.30
2015,10,09,17,07,11.60
2015,10,09,17,08,8.40
2015,10,09,17,09,9.40
2015,10,09,17,10,6.80
2015,10,09,17,11,7.30
2015,10,09,17,12,1.40
2015,10,09,17,13,9.00
2015,10,09,17,14,3.70
2015,10,09,17,15,9.30
2015,10,09,17,16,4.80
2015,10,09,17,17,4.50
2015,10,09,17,18,10.00
2015,10,09,17,19,12.20
2015,10,09,17,20,8.10
2015,10,09,17,21,7.90
2015,10,09,17,22,3.40
2015,10,09,17,23,10.80
2015,10,09,17,24,11.20
2015,10,09,17,25,15.00
2015,10,09,17,26,6.50
2015,10,09,17,27,9.70
2015,10,09,17,28,3.00
2015,10,09,17,29,4.00
2015,10,09,17,30,4.80
2015,10,09,17,31,6.90
2015,10,09,17,32,9.80
2015,10,09,17,33,14.30
2015,10,09,17,34,10.80
2015,10,09,17,35,8.40
2015,10,09,17,36,10.80
2015,10,09,17,37,7.20
2015,10,09,17,38,5.90
2015,10,09,17,39,11.80
2015,10,09,17,40,13.50
2015,10,09,17,41,8.10
2015,10,09,17,42,7.70
2015,10,09,17,43,4.40
2015,10,09,17,44,8.80
2015,10,09,17,45,12.70
2015,10,09,17,46,7.00
2015,10,09,17,47,1.20